Weather History for Grand Island, NE

Change the Weather History Date:

Saturday, December 1, 2012

  Actual Average Record
Temperature  
Mean Temperature 48 °F 30 °F  
Max Temperature 62 °F 41 °F 70 °F (1998)
Min Temperature 34 °F 20 °F -3 °F (1985)
Degree Days  
Heating Degree Days 17 35  
Month to date heating degree days 17 35  
Since 1 July heating degree days 1217 1365  
Cooling Degree Days 0 0  
Month to date cooling degree days 0 0  
Year to date cooling degree days 1507 1034  
Moisture  
Dew Point 38 °F    
Average Humidity 76    
Maximum Humidity 100    
Minimum Humidity 51    
Precipitation  
Precipitation 0.00 in 0.02 in 0.76 in (1933)
Month to date precipitation 0.00 0.02  
Year to date precipitation 9.89 26.05  
Snow  
Snow 0.00 in 0.10 in 0.60 in (1981)
Month to date snowfall 0.0 0.1  
Since 1 July snowfall 0.3 4.3  
Snow Depth 0.00 in    
Sea Level Pressure  
Sea Level Pressure 29.85 in    
Wind  
Wind Speed 8 mph (SSW)    
Max Wind Speed 14 mph    
Max Gust Speed 15 mph    
Visibility 6 miles    
Events Fog    
T = Trace of Precipitation, MM = Missing Value Source: NWS Daily Summary

Daily Weather History Graph

Daily Weather History Graph

Search for Another Location

Airport:

Trip Planner

Search our weather history database for the weather conditions in past years. The results will help you decide how hot, cold, wet, or windy it might be!

Date:

Astronomy

Dec. 01, 2012 Rise Set
Actual Time 7:39 AM CST 5:05 PM CST
Civil Twilight 7:08 AM CST 5:36 PM CST
Nautical Twilight 6:34 AM CST 6:10 PM CST
Astronomical Twilight 6:01 AM CST 6:43 PM CST
Moon 7:57 PM CST (12/1) 9:52 AM CST (12/1)
Length of Visible Light 10h 27m
Length of Day
9h 26m
Waning Gibbous, 91% of the Moon is Illuminated
Dec 1
Waning Gibbous
Dec 6
Last Quarter
Dec 13
New
Dec 19
First Quarter
Dec 28
Full

Hourly Weather History & Observations

Time (CST) Temp. Windchill Dew Point Humidity Pressure Visibility Wind Dir Wind Speed Gust Speed Precip Events Conditions
12:53 AM 37.9 °F 32.1 °F 32.0 °F 79% 29.91 in 10.0 mi South 8.1 mph - N/A   Clear
1:53 AM 37.0 °F 30.4 °F 32.0 °F 82% 29.87 in 10.0 mi South 9.2 mph - N/A   Clear
2:53 AM 37.0 °F 29.8 °F 33.1 °F 86% 29.86 in 9.0 mi South 10.4 mph - N/A   Clear
3:53 AM 35.6 °F 29.2 °F 33.8 °F 93% 29.83 in 8.0 mi South 8.1 mph - N/A   Clear
4:01 AM 35.6 °F 30.7 °F 33.8 °F 93% 29.84 in 8.0 mi SSW 5.8 mph - N/A   Scattered Clouds
4:09 AM 35.6 °F 29.2 °F 32.0 °F 87% 29.83 in 8.0 mi SSW 8.1 mph - N/A   Mostly Cloudy
4:27 AM 35.6 °F 30.7 °F 33.8 °F 93% 29.84 in 7.0 mi SSW 5.8 mph - N/A   Scattered Clouds
4:46 AM 33.8 °F 30.8 °F 32.0 °F 93% 29.82 in 7.0 mi South 3.5 mph - N/A   Mostly Cloudy
4:53 AM 35.1 °F 31.0 °F 32.0 °F 89% 29.85 in 7.0 mi South 4.6 mph - N/A   Mostly Cloudy
5:50 AM 37.4 °F 32.8 °F 37.4 °F 100% 29.83 in 2.0 mi South 5.8 mph - N/A   Overcast
5:53 AM 37.9 °F 33.5 °F 37.0 °F 97% 29.86 in 1.8 mi South 5.8 mph - N/A   Overcast
6:05 AM 37.4 °F 33.8 °F 37.4 °F 100% 29.82 in 0.5 mi SSW 4.6 mph - N/A Fog Fog
6:09 AM 37.4 °F 32.8 °F 37.4 °F 100% 29.82 in 0.2 mi SSW 5.8 mph - N/A Fog Fog
6:53 AM 39.0 °F 35.7 °F 39.0 °F 100% 29.86 in 0.2 mi WSW 4.6 mph - N/A Fog Fog
7:32 AM 39.2 °F 35.9 °F 39.2 °F 100% 29.84 in 0.2 mi SSW 4.6 mph - N/A Fog Fog
7:53 AM 39.9 °F 35.1 °F 39.9 °F 100% 29.87 in 0.2 mi SW 6.9 mph - N/A Fog Fog
8:53 AM 41.0 °F 36.4 °F 41.0 °F 100% 29.88 in 0.2 mi SSW 6.9 mph - N/A Fog Fog
9:53 AM 42.1 °F 35.2 °F 42.1 °F 100% 29.88 in 0.2 mi SSW 12.7 mph - N/A Fog Fog
10:45 AM 44.6 °F 39.7 °F 44.6 °F 100% 29.85 in 0.5 mi WSW 9.2 mph - N/A Fog Fog
10:53 AM 44.6 °F 40.2 °F 44.6 °F 100% 29.85 in 0.5 mi SW 8.1 mph - N/A Fog Fog
11:17 AM 44.6 °F 40.7 °F 44.6 °F 100% 29.84 in 3.0 mi SW 6.9 mph - N/A   Overcast
11:53 AM 45.0 °F 40.6 °F 44.1 °F 97% 29.86 in 7.0 mi SW 8.1 mph - N/A   Overcast
12:23 PM 48.2 °F - 44.6 °F 87% 29.82 in 9.0 mi SW 6.9 mph - N/A   Mostly Cloudy
12:32 PM 48.2 °F - 44.6 °F 87% 29.82 in 9.0 mi WSW 6.9 mph - N/A   Scattered Clouds
12:53 PM 50.0 °F - 44.1 °F 80% 29.82 in 10.0 mi SSW 9.2 mph - N/A   Clear
1:53 PM 55.0 °F - 43.0 °F 64% 29.80 in 10.0 mi SSW 10.4 mph - N/A   Clear
2:53 PM 60.1 °F - 43.0 °F 53% 29.79 in 10.0 mi South 8.1 mph - N/A   Clear
3:53 PM 61.0 °F - 42.1 °F 50% 29.81 in 10.0 mi SSW 5.8 mph - N/A   Clear
4:53 PM 54.0 °F - 39.0 °F 57% 29.82 in 10.0 mi SSW 6.9 mph - N/A   Clear
5:53 PM 53.1 °F - 39.9 °F 61% 29.84 in 10.0 mi South 5.8 mph - N/A   Clear
6:53 PM 42.1 °F 39.2 °F 35.1 °F 76% 29.87 in 10.0 mi WSW 4.6 mph - N/A   Clear
7:53 PM 44.1 °F 38.6 °F 36.0 °F 73% 29.87 in 10.0 mi SW 10.4 mph - N/A   Clear
8:53 PM 46.9 °F - 36.0 °F 66% 29.89 in 10.0 mi West 9.2 mph - N/A   Clear
9:53 PM 46.9 °F - 35.1 °F 63% 29.90 in 10.0 mi West 12.7 mph - N/A   Clear
10:53 PM 44.1 °F 39.0 °F 34.0 °F 68% 29.93 in 10.0 mi West 9.2 mph - N/A   Clear
11:53 PM 44.1 °F 38.6 °F 34.0 °F 68% 29.93 in 10.0 mi WNW 10.4 mph - N/A   Clear